Temp_Advection
nan nan nan nan nan nan nan nan nan nan nan nan nan nan nan nan nan nan nan nan nan nan nan nan nan nan nan nan nan nan nan nan nan nan nan nan nan nan nan nan nan nan nan nan
nan -1 -1 -0 0 0 0 0 1 -1 0 -0 0 1 -0 -1 -1 -0 -0 -0 -0 -0 0 0 0 0 0 0 0 0 0 0 0 1 1 1 1 1 0 0 0 0 0 nan
nan -1 -0 1 0 0 0 0 0 0 -0 -0 0 0 -0 -0 -0 -0 -0 -0 -0 -1 -0 0 0 0 0 0 0 0 0 0 0 1 1 1 0 1 1 0 0 0 0 nan
nan -0 1 1 0 0 -0 -1 1 -0 -1 -1 0 -0 -2 -1 -0 -1 -0 -0 -0 -0 0 0 1 0 0 0 0 0 0 0 0 0 1 0 1 0 1 1 0 0 0 nan
nan 0 0 0 -0 -0 -0 1 1 -0 -1 0 -0 -1 -0 -1 -0 -1 -1 -0 0 1 1 0 0 0 1 1 0 0 0 0 0 1 1 1 1 0 0 0 0 0 0 nan
nan 0 -0 -0 -0 0 -0 0 0 0 0 -0 -1 -1 1 -1 -1 -0 -1 -0 1 1 0 0 1 1 1 1 1 0 0 0 0 1 1 1 1 0 0 0 0 0 0 nan
nan 0 0 0 0 1 1 -0 0 0 -0 -1 -1 0 -0 1 1 0 -0 1 1 1 0 0 0 1 1 1 1 1 0 0 0 0 0 0 0 0 0 0 0 0 0 nan
nan -0 -0 -0 -0 0 1 0 -0 -1 -1 -1 0 0 2 -2 -1 -0 1 1 1 0 0 -0 0 1 1 1 1 1 0 0 0 0 0 0 0 0 0 0 0 0 0 nan
nan -0 -0 -0 0 -0 -0 -1 -0 -0 0 0 0 0 -1 -0 0 0 1 1 0 0 0 0 0 1 1 1 0 0 0 0 0 0 0 0 0 0 0 0 0 0 0 nan
nan -0 1 1 1 0 -0 0 1 0 0 -1 -1 -0 1 -0 -1 0 1 0 0 0 0 0 0 0 1 1 0 0 0 0 0 0 0 0 0 0 0 0 0 0 0 nan
nan 0 0 1 0 1 1 0 -0 0 -0 -1 -1 2 -2 0 -1 0 0 0 0 0 0 0 0 0 0 1 1 1 1 0 0 0 0 0 0 0 0 0 0 -0 -0 nan
nan -0 -0 0 0 -0 -0 0 1 0 -1 -0 -0 3 -0 -0 1 -0 0 0 0 0 0 0 0 0 1 1 0 0 0 0 0 0 0 0 0 0 0 0 -0 -0 -0 nan
nan -0 0 -0 0 -0 0 -0 -0 -0 0 0 0 2 -0 0 1 0 0 0 0 1 0 0 0 0 0 0 0 0 0 0 0 0 0 0 0 0 -0 -0 -0 -0 -0 nan
nan -0 -0 -0 -0 -0 0 -0 0 1 0 -0 0 2 -0 1 1 1 1 1 1 1 1 0 -0 -0 -0 0 0 0 0 0 0 0 0 0 0 -0 -0 -0 -0 -0 -0 nan
nan -0 0 1 1 -0 -1 -0 1 0 -0 0 0 3 0 1 1 1 1 1 1 1 1 1 -0 0 0 0 0 0 0 0 0 0 0 0 0 0 -0 -0 -0 -0 -0 nan
nan -0 -0 -0 0 0 -0 -1 -1 0 1 1 0 0 -0 -0 -0 1 1 0 0 0 0 -0 0 0 0 0 0 0 0 0 0 0 0 0 -0 -0 -0 -0 -0 -0 -0 nan
nan -0 -0 0 -0 -0 -0 1 2 0 2 1 2 2 -1 0 0 1 0 0 -0 -0 -0 -0 0 0 0 0 0 0 0 0 0 0 0 0 -0 -0 -0 -0 -0 -0 -0 nan
nan -0 -0 0 -0 0 -0 -0 -1 -0 -1 -0 -0 1 0 0 0 0 0 -0 -1 -1 -1 0 1 0 0 0 0 0 0 0 0 0 0 0 -0 -0 -0 -0 -0 -0 -0 nan
nan -0 -0 -0 -0 1 0 -0 -0 0 -0 -0 0 -0 -1 -1 -1 -0 0 0 0 -0 -0 -0 0 0 0 0 0 0 0 0 0 0 -0 -0 -0 -0 -0 -0 -0 -0 -0 nan
nan -0 -0 0 -0 1 -1 -0 -0 -1 -0 -0 0 0 1 0 -0 -0 -0 -0 -0 0 1 0 0 -0 -0 -0 0 0 0 0 0 0 -0 -0 -0 -0 -0 -0 -0 -0 -0 nan
nan -0 -0 -0 0 -0 -1 -0 -1 0 -0 -1 0 0 2 0 -1 -1 1 0 -0 -0 0 0 0 0 -0 0 0 0 0 0 -0 -0 -0 -0 -0 -0 -0 -0 -0 -0 -0 nan
nan 1 0 1 1 5 -1 -1 0 -1 0 1 0 -1 -2 2 3 1 1 0 1 0 -0 0 -0 0 0 0 0 0 0 -0 -0 -0 -0 -0 -0 -0 -0 -0 -0 -0 -0 nan
nan -1 -0 -1 -1 -1 -0 -0 0 0 0 0 0 0 -1 -1 1 1 1 1 0 0 0 -0 0 0 0 0 0 -0 -0 -0 -0 -0 -0 -0 -0 -0 -0 -0 -0 -0 -0 nan
nan -0 -0 0 -1 -0 -0 0 0 0 1 1 0 0 -0 -1 -0 -0 0 0 0 0 0 0 0 0 0 -0 -0 -0 -0 -0 -0 -0 -0 -0 -0 -0 -0 -0 -0 -0 -0 nan
nan -0 -0 -0 -0 -1 -0 0 0 0 1 1 1 1 1 -2 -0 0 -0 0 0 0 0 0 0 0 0 -0 -0 -0 -0 -0 -0 -0 -0 -0 -0 -0 -0 -0 -0 -0 -0 nan
nan nan nan nan nan nan nan nan nan nan nan nan nan nan nan nan nan nan nan nan nan nan nan nan nan nan nan nan nan nan nan nan nan nan nan nan nan nan nan nan nan nan nan nan
Wind_Speed
21 15 18 21 22 17 14 15 15 10 6 12 14 12 13 15 14 15 14 13 10 9 8 6 7 7 6 6 7 8 9 12 13 14 14 14 14 13 11 9 8 6 5 3
14 20 19 17 17 18 13 15 14 9 6 10 12 14 13 19 21 21 18 15 13 11 9 8 7 6 6 6 6 7 9 13 16 17 17 17 16 14 12 11 10 8 7 5
17 15 19 18 16 17 16 16 13 8 9 7 5 13 14 15 17 20 18 16 15 15 13 10 9 9 8 7 7 8 10 12 15 17 17 16 15 14 13 11 9 8 7 5
16 17 16 15 18 18 18 16 13 13 14 9 16 10 19 19 19 20 22 23 21 19 15 13 11 11 11 10 9 9 10 12 14 15 16 16 16 14 12 11 9 8 6 5
11 16 16 21 22 21 18 12 11 14 15 12 10 6 5 18 15 21 28 29 26 22 19 16 14 13 13 13 11 10 11 11 13 14 14 14 13 12 12 11 9 7 6 5
17 4 16 18 18 18 8 9 7 8 11 14 16 13 14 13 22 23 29 32 30 26 21 17 16 15 14 14 13 12 11 12 12 13 13 13 13 12 11 10 9 7 6 5
15 17 8 14 17 17 17 14 6 7 8 13 14 15 13 10 8 2 26 34 30 25 22 19 18 16 16 15 15 14 13 13 14 13 13 13 12 11 10 8 7 6 5 5
15 12 19 15 19 14 23 21 9 12 13 14 16 10 9 8 5 0 21 30 28 24 21 19 17 17 17 17 16 16 15 14 14 14 13 12 12 11 9 9 8 7 6 5
9 16 15 18 17 18 19 23 21 20 14 8 10 7 5 5 5 8 23 29 29 26 23 20 18 16 18 18 17 16 16 16 15 14 13 12 12 11 10 9 8 6 5 4
4 6 9 15 19 18 21 14 17 11 7 11 12 17 9 11 14 15 21 28 27 25 23 20 18 17 18 19 18 17 16 16 15 14 13 12 11 10 8 7 5 4 2 2
7 11 6 8 17 22 15 14 14 14 14 13 14 12 6 3 18 20 22 27 29 27 24 22 19 18 18 19 18 17 17 15 14 13 12 10 9 7 6 4 2 1 1 3
11 3 12 16 6 8 8 20 21 8 20 17 15 10 2 2 12 24 26 27 27 26 25 22 20 20 20 19 18 17 16 14 13 12 10 8 6 4 2 1 1 3 4 5
3 4 4 4 3 4 10 16 13 22 10 17 13 7 1 6 15 21 28 29 28 27 25 22 21 20 20 20 19 17 15 13 11 10 8 5 3 2 2 3 4 4 5 5
1 3 5 5 2 3 13 18 17 14 11 16 19 7 6 12 16 22 27 30 30 29 27 25 24 24 22 20 18 16 14 12 9 7 5 3 2 3 3 3 3 4 5 6
2 6 9 13 7 2 6 18 22 16 21 14 9 14 11 19 18 24 28 30 29 29 27 26 26 25 22 20 17 15 12 9 7 5 3 3 3 3 3 3 4 6 8 9
2 3 5 5 5 5 5 9 13 23 21 19 4 3 1 19 24 27 30 33 30 26 22 23 25 24 21 19 16 13 10 7 4 3 2 2 2 3 4 6 8 10 11 12
3 3 2 3 2 2 6 14 14 10 17 12 19 9 13 17 18 26 30 30 29 27 25 26 25 22 20 16 12 9 7 4 3 3 2 3 4 5 7 9 11 12 14 15
8 5 3 4 1 6 2 3 4 6 4 5 8 13 15 19 22 23 25 28 28 29 28 27 25 22 19 13 9 6 4 3 3 3 4 5 6 8 10 12 14 16 18 19
12 8 4 4 7 8 3 2 1 3 3 4 9 14 22 31 32 17 24 30 33 32 31 29 25 19 14 10 7 4 3 3 3 4 5 7 9 11 13 15 17 19 21 23
7 8 6 4 6 8 5 3 3 3 5 4 11 17 26 26 7 6 27 31 33 31 28 25 20 15 11 8 5 4 3 3 4 6 8 10 12 15 17 19 21 23 24 26
6 6 13 11 7 1 3 5 6 5 1 6 18 23 26 4 9 32 35 33 30 28 24 19 14 12 9 7 5 3 2 4 6 8 11 13 15 17 19 21 22 24 25 26
7 6 6 7 7 11 7 3 3 3 6 12 17 19 23 33 41 38 36 33 29 26 21 17 13 10 8 5 4 2 3 5 8 10 13 15 17 19 20 22 23 23 24 25
3 3 2 3 3 3 5 3 1 3 11 12 23 26 39 39 40 38 35 31 27 23 20 16 12 9 6 3 1 2 6 9 11 13 15 17 18 19 20 20 21 21 21 22
2 1 1 3 4 4 6 5 7 6 13 21 28 36 41 43 37 35 32 28 24 20 18 15 12 8 4 0 3 6 9 11 13 14 15 17 18 18 18 18 18 18 18 19
2 2 4 2 3 8 7 9 14 19 25 30 34 38 39 39 34 33 29 26 22 19 16 12 9 6 2 2 5 8 10 12 13 14 14 15 14 15 15 14 15 15 16 17
0 2 2 2 7 8 11 20 23 26 28 34 37 34 31 33 33 29 27 23 19 16 12 9 6 4 3 4 6 9 10 11 12 13 13 13 14 14 14 17 19 16 16 17
Wind_Direction
191 199 209 203 212 228 227 212 224 135 161 201 208 198 192 187 197 196 191 188 181 187 191 188 187 190 204 216 227 228 225 224 213 210 202 198 191 180 173 169 177 202 227 254
186 215 210 218 218 233 244 231 215 113 173 226 204 224 189 192 204 200 196 194 187 185 188 197 198 202 215 229 239 238 235 227 210 202 199 194 191 185 182 179 183 197 214 211
205 216 222 218 215 222 226 230 197 198 170 233 215 235 201 205 206 202 204 200 194 190 183 192 196 202 206 210 211 215 209 203 200 197 196 191 188 183 176 176 177 180 186 191
233 219 215 214 223 212 223 225 229 161 173 223 194 251 201 195 204 202 202 201 196 188 182 182 185 194 193 192 188 189 187 192 189 190 189 191 187 178 173 170 166 166 167 172
214 217 202 211 213 211 233 211 215 181 212 227 195 248 223 180 204 209 208 202 196 189 183 177 183 188 181 177 173 175 175 175 178 180 184 184 184 178 169 162 158 153 155 152
242 232 219 220 222 221 146 130 140 205 234 245 226 217 243 183 211 210 202 197 190 182 176 171 177 174 169 168 166 166 161 161 162 166 169 169 167 162 156 151 148 147 149 145
229 222 225 227 214 214 177 174 186 214 213 238 220 229 232 180 197 217 188 186 181 177 174 169 167 166 163 162 164 162 156 155 153 155 156 157 157 158 156 154 153 148 145 137
216 219 204 202 211 191 198 196 204 217 229 240 211 237 223 84 64 356 171 171 171 173 174 169 162 162 163 163 164 164 160 158 152 152 153 153 153 151 151 146 141 136 127 118
222 232 191 198 199 187 206 216 219 258 266 268 204 211 151 145 146 146 150 160 168 172 171 165 159 160 162 162 161 160 160 161 157 157 153 151 147 144 142 139 134 129 120 107
259 269 205 187 209 211 226 208 213 229 223 230 237 230 209 202 187 167 164 167 168 168 167 164 159 158 163 165 163 161 159 157 154 151 149 146 144 142 140 135 129 121 103 59
193 220 178 173 206 202 205 215 212 229 232 243 246 236 16 82 181 174 168 169 167 167 166 163 159 160 162 163 163 161 160 158 156 154 151 148 145 142 138 131 121 81 353 334
194 247 219 208 214 296 241 211 207 213 215 233 259 257 49 30 157 163 163 164 165 166 165 163 160 161 161 163 163 163 161 160 158 157 154 152 150 149 147 152 317 320 322 324
26 225 198 184 216 221 213 225 244 226 246 233 225 225 33 154 139 159 160 162 164 165 162 159 158 159 164 166 166 165 163 162 161 160 159 159 165 195 272 301 310 318 324 328
195 236 288 283 347 307 206 206 214 225 224 228 237 229 180 164 159 160 162 162 162 162 161 161 164 168 168 167 166 164 163 163 163 164 168 187 240 281 295 303 312 320 323 323
232 264 226 252 247 300 297 219 210 209 219 210 220 233 183 180 168 162 157 156 157 158 161 165 167 166 165 165 164 164 164 165 168 177 201 239 264 275 286 298 306 310 312 314
191 276 343 278 223 222 256 277 253 219 219 234 243 229 334 138 145 155 159 157 157 160 161 161 163 163 161 161 160 161 163 168 182 212 233 246 270 285 295 304 309 309 309 311
250 275 264 274 12 241 255 236 217 234 226 235 227 213 145 145 156 160 158 159 156 156 159 160 159 157 154 152 153 158 165 177 208 231 248 266 280 292 299 303 305 306 308 308
246 226 236 281 197 244 17 9 330 266 42 92 94 129 142 140 139 145 155 151 148 153 156 155 153 150 151 154 162 175 184 189 206 232 258 276 287 298 304 306 305 304 303 303
226 231 234 235 226 315 200 82 334 199 155 119 124 116 115 116 109 117 157 160 160 158 158 156 158 155 153 165 182 190 177 190 229 260 282 294 299 300 300 301 302 302 301 301
231 236 226 183 232 237 43 72 4 286 250 158 136 138 139 141 143 146 155 157 158 160 159 158 155 159 165 176 184 178 181 227 270 292 296 299 302 304 304 305 305 304 303 302
191 198 220 226 242 133 21 355 322 187 58 124 150 150 153 129 113 141 151 154 154 155 156 154 154 165 170 169 167 177 227 273 289 298 305 308 309 308 306 304 303 302 302 301
214 199 202 218 222 244 5 280 241 60 99 126 132 134 111 118 128 140 144 143 146 148 147 153 161 159 154 160 178 211 265 289 303 311 310 308 306 305 303 303 303 302 302 301
239 346 356 7 31 35 8 12 129 113 123 116 122 129 130 125 129 135 134 138 139 141 148 148 149 152 155 164 189 297 301 311 313 313 313 311 309 310 310 309 308 307 306 302
135 253 38 187 66 44 45 92 87 105 127 130 131 128 133 129 133 131 132 134 137 137 140 143 143 140 140 71 330 316 317 318 320 318 316 314 313 313 309 307 307 305 304 301
29 200 132 90 106 110 68 103 119 117 120 123 130 134 132 132 131 133 131 132 134 135 133 131 130 129 114 346 331 328 328 326 324 321 321 322 324 321 319 318 317 315 311 312
359 57 233 83 153 82 128 125 122 121 120 127 128 127 129 132 131 132 128 128 127 125 123 119 108 91 39 359 338 329 328 329 332 334 334 331 327 330 327 324 322 319 310 309
Height
1471 1471 1468 1467 1466 1464 1461 1467 1467 1479 1500 1501 1498 1501 1521 1526 1530 1532 1535 1538 1536 1537 1538 1539 1542 1543 1545 1545 1546 1547 1549 1554 1554 1556 1557 1559 1560 1561 1562 1563 1565 1567 1568 1568
1468 1466 1462 1464 1466 1467 1465 1463 1466 1490 1503 1503 1496 1497 1512 1522 1524 1527 1531 1532 1533 1533 1535 1539 1540 1541 1543 1543 1543 1545 1547 1550 1552 1553 1555 1557 1559 1560 1561 1562 1564 1565 1566 1567
1458 1458 1461 1462 1463 1467 1468 1466 1466 1478 1503 1506 1499 1498 1506 1513 1518 1522 1524 1526 1530 1532 1534 1536 1538 1539 1540 1541 1542 1544 1545 1547 1550 1551 1553 1555 1558 1559 1560 1561 1563 1564 1565 1566
1460 1455 1458 1461 1461 1467 1467 1463 1464 1485 1494 1484 1491 1473 1477 1496 1507 1513 1517 1521 1525 1529 1532 1535 1536 1537 1537 1539 1540 1543 1544 1547 1549 1550 1552 1554 1556 1558 1559 1561 1563 1563 1564 1565
1454 1452 1455 1459 1459 1462 1462 1461 1469 1483 1482 1472 1491 1490 1456 1484 1499 1502 1506 1512 1518 1523 1528 1531 1532 1534 1535 1537 1539 1543 1544 1546 1548 1550 1552 1554 1556 1558 1559 1560 1562 1563 1564 1565
1451 1453 1452 1453 1457 1458 1467 1472 1477 1481 1481 1476 1468 1474 1455 1475 1473 1477 1493 1503 1512 1518 1524 1527 1529 1532 1533 1536 1539 1543 1544 1545 1547 1549 1552 1554 1555 1557 1559 1560 1562 1563 1564 1565
1450 1449 1451 1451 1453 1456 1463 1470 1479 1484 1480 1464 1454 1458 1454 1452 1464 1471 1478 1494 1507 1515 1521 1524 1527 1529 1532 1535 1539 1542 1544 1546 1547 1550 1552 1554 1556 1558 1559 1561 1562 1563 1564 1565
1444 1445 1445 1447 1443 1451 1457 1458 1458 1462 1456 1450 1446 1446 1439 1465 1472 1474 1477 1492 1505 1513 1520 1524 1527 1528 1531 1534 1538 1541 1544 1547 1548 1551 1553 1555 1556 1558 1560 1561 1562 1564 1564 1565
1436 1431 1428 1435 1440 1445 1454 1447 1442 1444 1432 1442 1435 1441 1464 1472 1475 1476 1480 1491 1501 1510 1518 1523 1526 1528 1531 1534 1537 1540 1543 1546 1548 1551 1553 1555 1557 1559 1560 1562 1563 1564 1565 1565
1443 1439 1427 1432 1438 1438 1433 1440 1451 1449 1451 1446 1422 1418 1423 1460 1466 1475 1482 1490 1500 1509 1516 1521 1525 1528 1531 1533 1536 1540 1543 1546 1549 1551 1553 1556 1558 1559 1561 1562 1563 1564 1565 1565
1445 1439 1438 1435 1429 1426 1435 1437 1435 1439 1435 1425 1422 1411 1444 1436 1449 1465 1478 1489 1498 1506 1514 1520 1524 1527 1529 1533 1537 1540 1543 1546 1549 1551 1554 1556 1558 1559 1561 1562 1563 1564 1564 1564
1436 1438 1428 1428 1425 1431 1426 1423 1424 1429 1426 1423 1422 1415 1455 1454 1452 1464 1477 1488 1498 1506 1513 1518 1522 1524 1528 1533 1537 1540 1543 1546 1549 1551 1553 1556 1558 1559 1560 1561 1562 1563 1563 1562
1442 1432 1418 1428 1435 1433 1429 1425 1422 1419 1418 1416 1419 1413 1457 1456 1460 1469 1476 1487 1497 1505 1511 1516 1519 1523 1527 1531 1536 1540 1543 1546 1549 1551 1553 1555 1557 1558 1560 1560 1561 1561 1561 1561
1441 1435 1421 1411 1411 1416 1420 1418 1417 1420 1423 1412 1406 1417 1458 1458 1462 1469 1477 1485 1493 1502 1507 1512 1517 1521 1526 1531 1536 1539 1543 1546 1549 1551 1552 1554 1556 1557 1558 1558 1559 1559 1559 1559
1441 1426 1422 1417 1424 1427 1419 1407 1409 1415 1411 1414 1409 1413 1435 1445 1455 1466 1476 1486 1493 1499 1504 1509 1514 1520 1525 1531 1535 1539 1543 1546 1548 1550 1552 1553 1554 1555 1556 1557 1557 1557 1557 1556
1439 1428 1429 1420 1421 1425 1422 1419 1408 1403 1407 1411 1418 1424 1441 1450 1460 1468 1475 1482 1491 1499 1506 1510 1514 1520 1526 1531 1535 1539 1542 1545 1547 1549 1550 1551 1552 1553 1554 1554 1554 1554 1554 1554
1438 1431 1428 1414 1428 1426 1417 1411 1407 1406 1403 1407 1409 1416 1443 1453 1460 1467 1474 1482 1490 1498 1505 1510 1516 1522 1527 1531 1535 1539 1542 1544 1547 1548 1549 1550 1551 1551 1551 1552 1552 1552 1551 1550
1431 1431 1428 1417 1428 1413 1414 1428 1427 1413 1420 1425 1426 1433 1441 1451 1462 1471 1479 1484 1491 1498 1505 1512 1517 1522 1527 1532 1536 1539 1541 1544 1545 1547 1547 1548 1549 1549 1549 1548 1548 1548 1548 1547
1430 1429 1423 1418 1412 1399 1418 1427 1425 1417 1418 1431 1434 1440 1448 1456 1465 1479 1483 1487 1492 1500 1507 1513 1518 1523 1528 1532 1536 1538 1540 1542 1544 1545 1546 1546 1546 1546 1546 1545 1545 1544 1543 1542
1428 1426 1421 1418 1406 1396 1424 1435 1436 1435 1409 1435 1436 1444 1448 1453 1461 1477 1483 1488 1495 1501 1508 1514 1519 1524 1528 1532 1535 1537 1539 1540 1542 1543 1543 1543 1543 1542 1541 1540 1540 1538 1537 1535
1419 1419 1413 1408 1404 1407 1439 1440 1439 1415 1422 1440 1443 1447 1450 1453 1456 1472 1480 1489 1496 1503 1509 1515 1520 1525 1528 1531 1533 1536 1537 1539 1540 1540 1540 1539 1538 1537 1536 1536 1535 1534 1532 1530
1412 1409 1405 1407 1402 1399 1446 1442 1436 1448 1446 1445 1446 1451 1454 1459 1464 1473 1483 1490 1498 1504 1510 1516 1521 1524 1526 1529 1532 1534 1536 1536 1536 1536 1536 1535 1534 1533 1532 1530 1529 1528 1526 1524
1423 1434 1417 1435 1432 1451 1450 1450 1449 1449 1450 1450 1449 1454 1457 1463 1471 1479 1486 1494 1501 1506 1512 1517 1521 1523 1526 1529 1531 1532 1532 1532 1532 1532 1531 1531 1530 1528 1527 1525 1524 1522 1521 1519
1439 1442 1437 1442 1451 1452 1452 1451 1450 1452 1453 1453 1455 1459 1464 1467 1476 1483 1490 1496 1503 1509 1513 1518 1521 1524 1525 1527 1528 1529 1529 1529 1528 1528 1527 1526 1525 1524 1523 1521 1520 1518 1516 1515
1440 1441 1442 1450 1453 1453 1454 1454 1454 1457 1458 1459 1463 1467 1470 1475 1482 1487 1494 1500 1506 1511 1515 1518 1521 1523 1524 1525 1525 1526 1526 1525 1525 1525 1524 1523 1522 1520 1519 1517 1516 1515 1513 1512
1442 1440 1435 1429 1442 1446 1454 1457 1459 1462 1465 1467 1468 1474 1481 1484 1487 1493 1498 1503 1508 1512 1515 1517 1519 1521 1522 1523 1524 1524 1524 1523 1522 1521 1521 1520 1519 1517 1516 1514 1512 1511 1510 1509